Moab, UT

10:08 AM MDT on April 28, 2017 (GMT -0600)
Canyonlands

Weather History for KCNY - June, 2014

Change the Weather History Date:

Wednesday, June 4, 2014

  Actual Average Record
Temperature  
Mean Temperature 71 °F 69 °F  
Max Temperature 91 °F 86 °F 103 °F (1990)
Min Temperature 50 °F 52 °F 37 °F (2005)
Degree Days  
Heating Degree Days 0 1  
Month to date heating degree days 0 6  
Since 1 June heating degree days 0 6  
Since 1 July heating degree days 5811 5566  
Cooling Degree Days 6 5  
Month to date cooling degree days 34 20  
Year to date cooling degree days 133 84  
Since 1 June cooling degree days 34 20  
Growing Degree Days 22 (Base 50)    
Moisture  
Dew Point 11 °F    
Average Humidity 13    
Maximum Humidity 21    
Minimum Humidity 4    
Precipitation  
Precipitation 0.00 in 0.02 in 0.23 in (1944)
Month to date precipitation 0.00 0.07  
Year to date precipitation 2.38 3.27  
Sea Level Pressure  
Sea Level Pressure 29.71 in    
Wind  
Wind Speed 6 mph (SW)    
Max Wind Speed 21 mph    
Max Gust Speed 27 mph    
Visibility 10 miles    
Events      
T = Trace of Precipitation, MM = Missing Value Source: NWS Daily Summary

Daily Weather History Graph

Daily Weather History Graph

Search for Another Location

Airport or City:

Trip Planner

Search our weather history database for the weather conditions in past years. The results will help you decide how hot, cold, wet, or windy it might be!

Date:

Astronomy

Jun. 04, 2014 Rise Set
Actual Time 5:54 AM MDT 8:40 PM MDT
Civil Twilight 5:23 AM MDT 9:11 PM MDT
Nautical Twilight 4:44 AM MDT 9:51 PM MDT
Astronomical Twilight 3:59 AM MDT 10:35 PM MDT
Moon 12:14 PM MDT (6/4) 12:43 AM MDT (6/4)
Length of Visible Light 15h 48m
Length of Day
14h 45m
Waxing Crescent, 39% of the Moon is Illuminated
Jun 4
Waxing Crescent
Jun 5
First Quarter
Jun 12
Full
Jun 19
Last Quarter
Jun 27
New

Hourly Weather History & Observations

Time (MDT) Temp. Dew Point Humidity Pressure Visibility Wind Dir Wind Speed Gust Speed Precip Events Conditions
12:53 AM 64.4 °F 10.4 °F 12% 29.87 in 10.0 mi Calm Calm - N/A   Clear
1:53 AM 57.0 °F 12.9 °F 18% 29.71 in 10.0 mi West 4.6 mph - N/A   Clear
2:53 AM 55.9 °F 10.9 °F 17% 29.71 in 10.0 mi Calm Calm - N/A   Clear
3:53 AM 57.0 °F 10.9 °F 16% 29.72 in 10.0 mi West 4.6 mph - N/A   Clear
4:53 AM 57.9 °F 10.9 °F 16% 29.71 in 10.0 mi Calm Calm - N/A   Clear
5:53 AM 55.0 °F 12.9 °F 19% 29.73 in 10.0 mi Calm Calm - N/A   Clear
6:53 AM 57.9 °F 17.1 °F 20% 29.75 in 10.0 mi Calm Calm - N/A   Clear
7:53 AM 66.9 °F 18.0 °F 15% 29.74 in 10.0 mi SSE 6.9 mph - N/A   Clear
8:53 AM 72.0 °F 18.0 °F 13% 29.76 in 10.0 mi SE 4.6 mph - N/A   Clear
9:53 AM 75.9 °F 15.1 °F 10% 29.76 in 10.0 mi East 5.8 mph - N/A   Clear
10:53 AM 81.0 °F 10.9 °F 7% 29.74 in 10.0 mi North - - N/A   Clear
11:53 AM 84.9 °F 12.9 °F 7% 29.74 in 10.0 mi SW 13.8 mph 18.4 mph N/A   Clear
12:53 PM 87.1 °F 7.0 °F 5% 29.72 in 10.0 mi SSW 11.5 mph - N/A   Clear
1:53 PM 87.1 °F 9.0 °F 5% 29.72 in 10.0 mi WSW 10.4 mph 17.3 mph N/A   Clear
2:53 PM 89.1 °F 6.1 °F 4% 29.71 in 10.0 mi WSW 15.0 mph 21.9 mph N/A   Clear
3:53 PM 89.1 °F 5.0 °F 4% 29.69 in 10.0 mi SW 11.5 mph - N/A   Clear
4:53 PM 90.0 °F 6.1 °F 4% 29.67 in 10.0 mi West 13.8 mph 21.9 mph N/A   Clear
5:53 PM 89.1 °F 7.0 °F 5% 29.67 in 10.0 mi West 8.1 mph - N/A   Clear
6:53 PM 88.0 °F 7.0 °F 5% 29.65 in 10.0 mi NW 6.9 mph - N/A   Clear
7:53 PM 87.1 °F 9.0 °F 5% 29.64 in 10.0 mi Calm Calm - N/A   Clear
8:53 PM 75.9 °F 12.9 °F 9% 29.66 in 10.0 mi SSW 4.6 mph - N/A   Clear
9:53 PM 71.1 °F 14.0 °F 11% 29.68 in 10.0 mi SW 5.8 mph - N/A   Clear
10:53 PM 71.1 °F 12.0 °F 10% 29.68 in 10.0 mi West 3.5 mph - N/A   Clear
11:53 PM 66.0 °F 12.0 °F 12% 29.70 in 10.0 mi Calm Calm - N/A   Clear